Time,TemperatureF,DewpointF,PressureIn,WindDirection,WindDirectionDegrees,WindSpeedMPH,WindSpeedGustMPH,Humidity,HourlyPrecipIn,Conditions,Clouds,dailyrainin,SoftwareType,DateUTC
2013-09-13 00:05:00,71.5,70.9,29.76,NE,41,0.0,0.0,98,0.00,,,0.00,Wunderground v.1.15,2013-09-13 04:05:00,
2013-09-13 00:10:00,71.4,70.8,29.76,NE,41,0.0,0.0,98,0.00,,,0.00,Wunderground v.1.15,2013-09-13 04:10:00,
2013-09-13 00:15:00,71.3,70.7,29.75,NE,41,0.0,0.0,98,0.00,,,0.00,Wunderground v.1.15,2013-09-13 04:15:00,
2013-09-13 00:25:00,71.2,70.6,29.75,NE,41,0.0,0.0,98,0.00,,,0.00,Wunderground v.1.15,2013-09-13 04:25:00,
2013-09-13 00:30:00,71.2,70.6,29.75,NE,41,0.0,0.0,98,0.00,,,0.00,Wunderground v.1.15,2013-09-13 04:30:00,
2013-09-13 00:35:00,71.2,70.6,29.75,NE,41,0.0,0.0,98,0.00,,,0.00,Wunderground v.1.15,2013-09-13 04:35:00,
2013-09-13 00:45:00,71.1,70.5,29.75,NE,41,0.0,0.0,98,0.00,,,0.00,Wunderground v.1.15,2013-09-13 04:45:00,
2013-09-13 00:50:00,70.9,70.3,29.74,NE,41,0.0,0.0,98,0.00,,,0.00,Wunderground v.1.15,2013-09-13 04:50:00,
2013-09-13 00:55:00,70.8,70.2,29.74,NE,41,0.0,0.0,98,0.00,,,0.00,Wunderground v.1.15,2013-09-13 04:55:00,
2013-09-13 01:05:00,70.7,70.1,29.74,NE,41,0.0,0.0,98,0.00,,,0.00,Wunderground v.1.15,2013-09-13 05:05:00,
2013-09-13 01:10:00,70.6,70.0,29.74,NE,41,0.0,0.0,98,0.00,,,0.00,Wunderground v.1.15,2013-09-13 05:10:00,
2013-09-13 01:15:00,70.6,70.0,29.74,NE,41,0.0,0.0,98,0.00,,,0.00,Wunderground v.1.15,2013-09-13 05:15:00,
2013-09-13 01:25:00,70.4,69.8,29.74,NE,41,0.0,0.0,98,0.00,,,0.00,Wunderground v.1.15,2013-09-13 05:25:00,
2013-09-13 01:30:00,70.4,69.8,29.75,NE,41,0.0,0.0,98,0.00,,,0.00,Wunderground v.1.15,2013-09-13 05:30:00,
2013-09-13 01:35:00,70.3,69.7,29.75,NE,41,0.0,0.0,98,0.00,,,0.00,Wunderground v.1.15,2013-09-13 05:35:00,
2013-09-13 01:45:00,70.2,69.9,29.74,NE,41,0.0,0.0,99,0.00,,,0.00,Wunderground v.1.15,2013-09-13 05:45:00,
2013-09-13 01:50:00,70.2,69.9,29.74,NE,41,0.0,0.0,99,0.00,,,0.00,Wunderground v.1.15,2013-09-13 05:50:00,
2013-09-13 02:00:00,70.2,69.9,29.74,NE,41,0.0,0.0,99,0.00,,,0.00,Wunderground v.1.15,2013-09-13 06:00:00,
2013-09-13 02:05:00,70.2,69.9,29.74,NE,41,0.0,0.0,99,0.00,,,0.00,Wunderground v.1.15,2013-09-13 06:05:00,
2013-09-13 02:10:00,70.2,69.9,29.74,NE,41,0.0,0.0,99,0.00,,,0.00,Wunderground v.1.15,2013-09-13 06:10:00,
2013-09-13 02:20:00,70.1,69.8,29.74,NE,41,0.0,0.0,99,0.00,,,0.00,Wunderground v.1.15,2013-09-13 06:20:00,
2013-09-13 02:25:00,70.1,69.8,29.74,NE,41,0.0,0.0,99,0.00,,,0.00,Wunderground v.1.15,2013-09-13 06:25:00,
2013-09-13 02:30:00,70.2,69.9,29.73,NE,41,0.0,0.0,99,0.00,,,0.00,Wunderground v.1.15,2013-09-13 06:30:00,
2013-09-13 02:35:00,70.3,70.0,29.73,NE,41,0.0,0.0,99,0.00,,,0.00,Wunderground v.1.15,2013-09-13 06:35:00,
2013-09-13 02:45:00,70.4,70.1,29.73,NE,41,0.0,0.0,99,0.00,,,0.00,Wunderground v.1.15,2013-09-13 06:45:00,
2013-09-13 02:50:00,70.4,70.1,29.73,NE,41,0.0,0.0,99,0.00,,,0.00,Wunderground v.1.15,2013-09-13 06:50:00,
2013-09-13 03:00:00,70.5,70.2,29.73,NE,41,0.0,0.0,99,0.00,,,0.00,Wunderground v.1.15,2013-09-13 07:00:00,
2013-09-13 03:05:00,70.5,70.2,29.73,NE,41,0.0,0.0,99,0.00,,,0.00,Wunderground v.1.15,2013-09-13 07:05:00,
2013-09-13 03:20:00,70.4,70.1,29.72,NE,41,0.0,0.0,99,0.00,,,0.00,Wunderground v.1.15,2013-09-13 07:20:00,
2013-09-13 03:25:00,70.4,70.1,29.72,NE,41,0.0,0.0,99,0.00,,,0.00,Wunderground v.1.15,2013-09-13 07:25:00,
2013-09-13 03:30:00,70.3,70.0,29.72,NE,41,0.0,0.0,99,0.00,,,0.00,Wunderground v.1.15,2013-09-13 07:30:00,
2013-09-13 03:40:00,70.2,69.9,29.72,NE,40,0.0,0.0,99,0.00,,,0.00,Wunderground v.1.15,2013-09-13 07:40:00,
2013-09-13 03:45:00,70.2,69.9,29.72,NE,40,0.0,0.0,99,0.00,,,0.00,Wunderground v.1.15,2013-09-13 07:45:00,
2013-09-13 03:50:00,70.1,69.8,29.72,NE,40,0.0,0.0,99,0.00,,,0.00,Wunderground v.1.15,2013-09-13 07:50:00,
2013-09-13 04:00:00,70.0,69.7,29.72,NE,40,0.0,0.0,99,0.00,,,0.00,Wunderground v.1.15,2013-09-13 08:00:00,
2013-09-13 04:05:00,69.9,69.6,29.72,NE,40,0.0,0.0,99,0.00,,,0.00,Wunderground v.1.15,2013-09-13 08:05:00,
2013-09-13 04:10:00,69.9,69.6,29.72,NE,40,0.0,0.0,99,0.00,,,0.00,Wunderground v.1.15,2013-09-13 08:10:00,
2013-09-13 04:20:00,69.8,69.5,29.72,NE,40,0.0,0.0,99,0.00,,,0.00,Wunderground v.1.15,2013-09-13 08:20:00,
2013-09-13 04:25:00,69.8,69.5,29.72,NE,40,0.0,0.0,99,0.00,,,0.00,Wunderground v.1.15,2013-09-13 08:25:00,
2013-09-13 04:30:00,69.7,69.4,29.72,NE,40,0.0,0.0,99,0.00,,,0.00,Wunderground v.1.15,2013-09-13 08:30:00,
2013-09-13 04:40:00,69.6,69.3,29.72,NE,40,0.0,0.0,99,0.00,,,0.00,Wunderground v.1.15,2013-09-13 08:40:00,
2013-09-13 04:45:00,69.5,68.9,29.71,NE,40,0.0,0.0,98,0.00,,,0.00,Wunderground v.1.15,2013-09-13 08:45:00,
2013-09-13 04:50:00,69.4,69.1,29.71,NE,40,0.0,0.0,99,0.00,,,0.00,Wunderground v.1.15,2013-09-13 08:50:00,
2013-09-13 05:00:00,69.3,69.0,29.72,NE,40,0.0,0.0,99,0.00,,,0.00,Wunderground v.1.15,2013-09-13 09:00:00,
2013-09-13 05:05:00,69.2,68.9,29.72,NE,40,0.0,0.0,99,0.00,,,0.00,Wunderground v.1.15,2013-09-13 09:05:00,
2013-09-13 05:10:00,69.2,68.9,29.72,NE,40,0.0,0.0,99,0.00,,,0.00,Wunderground v.1.15,2013-09-13 09:10:00,
2013-09-13 05:20:00,69.2,68.9,29.71,NE,40,0.0,0.0,99,0.00,,,0.00,Wunderground v.1.15,2013-09-13 09:20:00,
2013-09-13 05:25:00,69.2,68.9,29.72,NE,40,0.0,0.0,99,0.00,,,0.00,Wunderground v.1.15,2013-09-13 09:25:00,
2013-09-13 05:30:00,69.1,68.8,29.72,NE,40,0.0,0.0,99,0.00,,,0.00,Wunderground v.1.15,2013-09-13 09:30:00,
2013-09-13 05:40:00,69.0,68.4,29.71,NE,40,0.0,0.0,98,0.00,,,0.00,Wunderground v.1.15,2013-09-13 09:40:00,
2013-09-13 05:45:00,69.0,68.4,29.71,NE,40,0.0,0.0,98,0.00,,,0.00,Wunderground v.1.15,2013-09-13 09:45:00,
2013-09-13 05:50:00,68.9,68.3,29.72,NE,40,0.0,0.0,98,0.00,,,0.00,Wunderground v.1.15,2013-09-13 09:50:00,
2013-09-13 06:00:00,68.7,68.1,29.72,NE,40,0.0,0.0,98,0.00,,,0.00,Wunderground v.1.15,2013-09-13 10:00:00,
2013-09-13 06:05:00,68.7,68.4,29.72,NE,40,0.0,0.0,99,0.00,,,0.00,Wunderground v.1.15,2013-09-13 10:05:00,
2013-09-13 06:15:00,68.7,68.4,29.72,NE,40,0.0,0.0,99,0.00,,,0.00,Wunderground v.1.15,2013-09-13 10:15:00,
2013-09-13 06:20:00,68.8,68.2,29.72,NE,40,0.0,0.0,98,0.00,,,0.00,Wunderground v.1.15,2013-09-13 10:20:00,
2013-09-13 06:25:00,68.9,68.3,29.73,NE,40,0.0,0.0,98,0.00,,,0.00,Wunderground v.1.15,2013-09-13 10:25:00,
2013-09-13 06:30:00,68.9,68.0,29.73,NE,39,0.0,1.0,97,0.00,,,0.00,Wunderground v.1.15,2013-09-13 10:30:00,
2013-09-13 06:40:00,69.3,67.8,29.73,NE,39,0.0,1.0,95,0.00,,,0.00,Wunderground v.1.15,2013-09-13 10:40:00,
2013-09-13 06:45:00,69.5,68.3,29.73,NE,39,0.0,1.0,96,0.00,,,0.00,Wunderground v.1.15,2013-09-13 10:45:00,
2013-09-13 06:50:00,69.6,68.4,29.73,NE,39,0.0,0.0,96,0.00,,,0.00,Wunderground v.1.15,2013-09-13 10:50:00,
2013-09-13 07:00:00,69.4,68.2,29.73,NE,39,0.0,0.0,96,0.00,,,0.00,Wunderground v.1.15,2013-09-13 11:00:00,
2013-09-13 07:05:00,69.3,68.1,29.74,NE,39,0.0,0.0,96,0.00,,,0.00,Wunderground v.1.15,2013-09-13 11:05:00,
2013-09-13 07:10:00,69.2,68.3,29.74,NE,39,0.0,0.0,97,0.00,,,0.00,Wunderground v.1.15,2013-09-13 11:10:00,
2013-09-13 07:20:00,69.1,68.2,29.74,NE,39,0.0,1.0,97,0.00,,,0.00,Wunderground v.1.15,2013-09-13 11:20:00,
2013-09-13 07:25:00,69.1,68.2,29.74,NE,39,0.0,1.0,97,0.00,,,0.00,Wunderground v.1.15,2013-09-13 11:25:00,
2013-09-13 07:30:00,69.1,68.2,29.75,NE,39,0.0,0.0,97,0.00,,,0.00,Wunderground v.1.15,2013-09-13 11:30:00,
2013-09-13 07:40:00,69.3,68.4,29.75,NE,39,0.0,0.0,97,0.00,,,0.00,Wunderground v.1.15,2013-09-13 11:40:00,
2013-09-13 07:45:00,69.2,68.3,29.75,NE,39,0.0,0.0,97,0.00,,,0.00,Wunderground v.1.15,2013-09-13 11:45:00,
2013-09-13 07:50:00,69.2,68.3,29.75,NE,39,0.0,0.0,97,0.00,,,0.00,Wunderground v.1.15,2013-09-13 11:50:00,
2013-09-13 08:00:00,69.2,68.3,29.75,NE,39,0.0,0.0,97,0.00,,,0.00,Wunderground v.1.15,2013-09-13 12:00:00,
2013-09-13 08:05:00,69.2,68.3,29.75,NE,39,0.0,0.0,97,0.00,,,0.00,Wunderground v.1.15,2013-09-13 12:05:00,
2013-09-13 08:10:00,69.2,68.3,29.75,NE,39,0.0,0.0,97,0.00,,,0.00,Wunderground v.1.15,2013-09-13 12:10:00,
2013-09-13 08:20:00,69.3,68.4,29.75,NE,39,0.0,0.0,97,0.00,,,0.00,Wunderground v.1.15,2013-09-13 12:20:00,
2013-09-13 08:25:00,69.4,68.5,29.75,NE,39,0.0,0.0,97,0.00,,,0.00,Wunderground v.1.15,2013-09-13 12:25:00,
2013-09-13 08:35:00,69.9,68.1,29.75,NE,39,0.0,1.0,94,0.00,,,0.00,Wunderground v.1.15,2013-09-13 12:35:00,
2013-09-13 08:40:00,70.4,68.6,29.75,NE,39,0.0,0.0,94,0.00,,,0.00,Wunderground v.1.15,2013-09-13 12:40:00,
2013-09-13 08:45:00,70.5,68.4,29.75,NE,39,0.0,0.0,93,0.00,,,0.00,Wunderground v.1.15,2013-09-13 12:45:00,
2013-09-13 08:55:00,70.5,68.1,29.76,NE,40,0.0,0.0,92,0.00,,,0.00,Wunderground v.1.15,2013-09-13 12:55:00,
2013-09-13 09:00:00,70.6,67.5,29.76,NE,40,0.0,2.0,90,0.00,,,0.00,Wunderground v.1.15,2013-09-13 13:00:00,
2013-09-13 09:05:00,71.1,67.7,29.76,NNW,327,1.0,2.0,89,0.00,,,0.00,Wunderground v.1.15,2013-09-13 13:05:00,
2013-09-13 09:15:00,72.1,67.3,29.76,NE,45,1.0,1.0,85,0.00,,,0.00,Wunderground v.1.15,2013-09-13 13:15:00,
2013-09-13 09:20:00,72.6,67.8,29.76,NNW,340,1.0,1.0,85,0.00,,,0.00,Wunderground v.1.15,2013-09-13 13:20:00,
2013-09-13 09:25:00,73.1,67.6,29.76,ENE,59,1.0,2.0,83,0.00,,,0.00,Wunderground v.1.15,2013-09-13 13:25:00,
2013-09-13 09:35:00,74.0,67.4,29.76,ENE,65,2.0,2.0,80,0.00,,,0.00,Wunderground v.1.15,2013-09-13 13:35:00,
2013-09-13 09:40:00,74.3,67.7,29.76,North,360,2.0,2.0,80,0.00,,,0.00,Wunderground v.1.15,2013-09-13 13:40:00,
2013-09-13 09:45:00,74.6,66.9,29.76,NW,319,1.0,2.0,77,0.00,,,0.00,Wunderground v.1.15,2013-09-13 13:45:00,
2013-09-13 09:55:00,75.3,66.4,29.76,NE,39,2.0,3.0,74,0.00,,,0.00,Wunderground v.1.15,2013-09-13 13:55:00,
2013-09-13 10:00:00,75.6,66.7,29.76,NE,39,2.0,2.0,74,0.00,,,0.00,Wunderground v.1.15,2013-09-13 14:00:00,
2013-09-13 10:05:00,75.8,66.9,29.76,North,355,1.0,2.0,74,0.00,,,0.00,Wunderground v.1.15,2013-09-13 14:05:00,
2013-09-13 10:15:00,76.4,66.7,29.76,NNW,346,2.0,3.0,72,0.00,,,0.00,Wunderground v.1.15,2013-09-13 14:15:00,
2013-09-13 10:40:00,77.6,67.0,29.76,NE,38,2.0,2.0,70,0.00,,,0.00,Wunderground v.1.15,2013-09-13 14:40:00,
2013-09-13 10:45:00,77.8,66.0,29.76,North,351,2.0,2.0,67,0.00,,,0.00,Wunderground v.1.15,2013-09-13 14:45:00,
2013-09-13 10:50:00,78.1,66.2,29.76,NNE,24,2.0,2.0,67,0.00,,,0.00,Wunderground v.1.15,2013-09-13 14:50:00,
2013-09-13 10:55:00,78.4,66.1,29.75,NE,34,2.0,2.0,66,0.00,,,0.00,Wunderground v.1.15,2013-09-13 14:55:00,
2013-09-13 11:05:00,78.9,66.6,29.76,North,355,2.0,3.0,66,0.00,,,0.00,Wunderground v.1.15,2013-09-13 15:05:00,
2013-09-13 11:10:00,79.1,67.2,29.75,North,5,2.0,4.0,67,0.00,,,0.00,Wunderground v.1.15,2013-09-13 15:10:00,
2013-09-13 11:20:00,79.7,67.8,29.75,NNE,32,2.0,2.0,67,0.00,,,0.00,Wunderground v.1.15,2013-09-13 15:20:00,
2013-09-13 11:25:00,80.0,66.7,29.75,ENE,70,2.0,2.0,64,0.00,,,0.00,Wunderground v.1.15,2013-09-13 15:25:00,
2013-09-13 11:30:00,80.4,67.1,29.75,NNW,327,2.0,2.0,64,0.00,,,0.00,Wunderground v.1.15,2013-09-13 15:30:00,
2013-09-13 11:40:00,80.7,66.5,29.75,NNE,26,2.0,2.0,62,0.00,,,0.00,Wunderground v.1.15,2013-09-13 15:40:00,
2013-09-13 11:45:00,81.1,66.8,29.75,NE,44,1.0,2.0,62,0.00,,,0.00,Wunderground v.1.15,2013-09-13 15:45:00,
2013-09-13 11:50:00,81.3,66.6,29.75,NE,51,1.0,1.0,61,0.00,,,0.00,Wunderground v.1.15,2013-09-13 15:50:00,
2013-09-13 11:55:00,81.6,66.4,29.75,NNE,19,2.0,2.0,60,0.00,,,0.00,Wunderground v.1.15,2013-09-13 15:55:00,
2013-09-13 12:00:00,81.9,66.2,29.75,NW,312,2.0,2.0,59,0.00,,,0.00,Wunderground v.1.15,2013-09-13 16:00:00,
2013-09-13 12:10:00,82.3,66.0,29.75,North,9,2.0,2.0,58,0.00,,,0.00,Wunderground v.1.15,2013-09-13 16:10:00,
2013-09-13 12:15:00,82.4,66.1,29.75,NW,305,2.0,2.0,58,0.00,,,0.00,Wunderground v.1.15,2013-09-13 16:15:00,
2013-09-13 12:25:00,82.3,64.0,29.75,North,11,2.0,7.0,54,0.00,,,0.00,Wunderground v.1.15,2013-09-13 16:25:00,
2013-09-13 12:30:00,82.0,64.2,29.75,NNW,333,2.0,2.0,55,0.00,,,0.00,Wunderground v.1.15,2013-09-13 16:30:00,
2013-09-13 12:35:00,81.5,64.8,29.74,North,355,2.0,2.0,57,0.00,,,0.00,Wunderground v.1.15,2013-09-13 16:35:00,
2013-09-13 12:45:00,81.3,65.6,29.74,NNW,348,1.0,2.0,59,0.00,,,0.00,Wunderground v.1.15,2013-09-13 16:45:00,
2013-09-13 12:50:00,82.2,66.0,29.74,NE,42,1.0,2.0,58,0.00,,,0.00,Wunderground v.1.15,2013-09-13 16:50:00,
2013-09-13 12:55:00,82.3,65.0,29.74,NW,304,2.0,4.0,56,0.00,,,0.00,Wunderground v.1.15,2013-09-13 16:55:00,
2013-09-13 13:05:00,81.6,66.4,29.74,NNE,23,2.0,2.0,60,0.00,,,0.00,Wunderground v.1.15,2013-09-13 17:05:00,
2013-09-13 13:10:00,82.1,64.8,29.74,NE,54,2.0,2.0,56,0.00,,,0.00,Wunderground v.1.15,2013-09-13 17:10:00,
2013-09-13 13:15:00,82.5,64.7,29.73,WNW,283,2.0,2.0,55,0.00,,,0.00,Wunderground v.1.15,2013-09-13 17:15:00,
2013-09-13 13:25:00,82.4,64.1,29.73,North,350,2.0,2.0,54,0.00,,,0.00,Wunderground v.1.15,2013-09-13 17:25:00,
2013-09-13 13:30:00,81.8,63.5,29.73,North,350,2.0,2.0,54,0.00,,,0.00,Wunderground v.1.15,2013-09-13 17:30:00,
2013-09-13 13:35:00,82.1,64.8,29.73,NE,36,2.0,2.0,56,0.00,,,0.00,Wunderground v.1.15,2013-09-13 17:35:00,
2013-09-13 13:45:00,83.2,63.7,29.73,East,84,2.0,2.0,52,0.00,,,0.00,Wunderground v.1.15,2013-09-13 17:45:00,
2013-09-13 13:50:00,83.3,67.0,29.73,WNW,302,2.0,3.0,58,0.00,,,0.00,Wunderground v.1.15,2013-09-13 17:50:00,
2013-09-13 13:55:00,83.1,64.2,29.73,NE,34,2.0,3.0,53,0.00,,,0.00,Wunderground v.1.15,2013-09-13 17:55:00,
2013-09-13 14:05:00,82.5,64.2,29.73,NNE,24,2.0,4.0,54,0.00,,,0.00,Wunderground v.1.15,2013-09-13 18:05:00,
2013-09-13 14:10:00,82.1,64.3,29.73,NE,38,2.0,2.0,55,0.00,,,0.00,Wunderground v.1.15,2013-09-13 18:10:00,
2013-09-13 14:15:00,81.6,64.4,29.73,ENE,58,1.0,2.0,56,0.00,,,0.00,Wunderground v.1.15,2013-09-13 18:15:00,
2013-09-13 14:25:00,81.0,64.3,29.73,NNE,26,2.0,2.0,57,0.00,,,0.00,Wunderground v.1.15,2013-09-13 18:25:00,
2013-09-13 14:30:00,81.6,64.4,29.72,NW,309,2.0,2.0,56,0.00,,,0.00,Wunderground v.1.15,2013-09-13 18:30:00,
2013-09-13 14:35:00,81.8,64.1,29.72,NNW,333,2.0,3.0,55,0.00,,,0.00,Wunderground v.1.15,2013-09-13 18:35:00,
2013-09-13 14:45:00,82.0,64.8,29.72,South,171,2.0,3.0,56,0.00,,,0.00,Wunderground v.1.15,2013-09-13 18:45:00,
2013-09-13 14:50:00,82.4,63.5,29.72,North,9,1.0,3.0,53,0.00,,,0.00,Wunderground v.1.15,2013-09-13 18:50:00,
2013-09-13 14:55:00,82.1,63.3,29.72,NE,34,2.0,3.0,53,0.00,,,0.00,Wunderground v.1.15,2013-09-13 18:55:00,
2013-09-13 15:05:00,82.2,63.9,29.72,NE,38,1.0,2.0,54,0.00,,,0.00,Wunderground v.1.15,2013-09-13 19:05:00,
2013-09-13 15:10:00,82.7,63.8,29.72,East,88,2.0,2.0,53,0.00,,,0.00,Wunderground v.1.15,2013-09-13 19:10:00,
2013-09-13 15:15:00,82.5,63.6,29.72,ENE,73,2.0,2.0,53,0.00,,,0.00,Wunderground v.1.15,2013-09-13 19:15:00,
2013-09-13 15:25:00,81.9,68.5,29.71,East,92,1.0,2.0,64,0.00,,,0.00,Wunderground v.1.15,2013-09-13 19:25:00,
2013-09-13 15:30:00,82.0,67.2,29.71,NE,55,1.0,3.0,61,0.00,,,0.00,Wunderground v.1.15,2013-09-13 19:30:00,
2013-09-13 15:40:00,83.3,63.8,29.71,NNE,28,1.0,1.0,52,0.00,,,0.00,Wunderground v.1.15,2013-09-13 19:40:00,
2013-09-13 15:45:00,83.9,64.9,29.71,NW,319,1.0,1.0,53,0.00,,,0.00,Wunderground v.1.15,2013-09-13 19:45:00,
2013-09-13 15:50:00,84.3,64.8,29.71,WNW,293,2.0,2.0,52,0.00,,,0.00,Wunderground v.1.15,2013-09-13 19:50:00,
2013-09-13 15:55:00,83.9,64.4,29.71,NE,38,2.0,2.0,52,0.00,,,0.00,Wunderground v.1.15,2013-09-13 19:55:00,
2013-09-13 16:05:00,82.6,66.8,29.71,NNE,24,1.0,2.0,59,0.00,,,0.00,Wunderground v.1.15,2013-09-13 20:05:00,
2013-09-13 16:10:00,82.1,64.3,29.72,NNW,330,1.0,3.0,55,0.00,,,0.00,Wunderground v.1.15,2013-09-13 20:10:00,
2013-09-13 16:20:00,81.5,63.3,29.72,NE,39,2.0,2.0,54,0.00,,,0.00,Wunderground v.1.15,2013-09-13 20:20:00,
2013-09-13 16:25:00,81.0,62.8,29.72,NE,39,2.0,3.0,54,0.00,,,0.00,Wunderground v.1.15,2013-09-13 20:25:00,
2013-09-13 16:30:00,80.8,63.1,29.72,NNE,13,2.0,2.0,55,0.00,,,0.00,Wunderground v.1.15,2013-09-13 20:30:00,
2013-09-13 16:35:00,80.8,63.1,29.72,North,10,1.0,2.0,55,0.00,,,0.00,Wunderground v.1.15,2013-09-13 20:35:00,
2013-09-13 16:45:00,80.4,62.2,29.72,NNE,23,1.0,3.0,54,0.00,,,0.00,Wunderground v.1.15,2013-09-13 20:45:00,
2013-09-13 16:50:00,80.2,61.5,29.72,NNE,28,2.0,2.0,53,0.00,,,0.00,Wunderground v.1.15,2013-09-13 20:50:00,
2013-09-13 16:55:00,80.1,62.5,29.72,WNW,294,2.0,2.0,55,0.00,,,0.00,Wunderground v.1.15,2013-09-13 20:55:00,
2013-09-13 17:05:00,80.2,61.0,29.72,NNE,17,2.0,3.0,52,0.00,,,0.00,Wunderground v.1.15,2013-09-13 21:05:00,
2013-09-13 17:10:00,80.5,60.7,29.72,NNE,22,2.0,3.0,51,0.00,,,0.00,Wunderground v.1.15,2013-09-13 21:10:00,
2013-09-13 17:15:00,80.8,60.4,29.72,NNW,327,2.0,3.0,50,0.00,,,0.00,Wunderground v.1.15,2013-09-13 21:15:00,
2013-09-13 17:25:00,81.1,59.0,29.73,NNE,28,2.0,3.0,47,0.00,,,0.00,Wunderground v.1.15,2013-09-13 21:25:00,
2013-09-13 17:30:00,81.0,59.5,29.73,NE,55,2.0,2.0,48,0.00,,,0.00,Wunderground v.1.15,2013-09-13 21:30:00,
2013-09-13 17:35:00,81.0,59.5,29.73,North,360,1.0,2.0,48,0.00,,,0.00,Wunderground v.1.15,2013-09-13 21:35:00,
2013-09-13 17:45:00,80.6,58.5,29.73,NNE,19,1.0,2.0,47,0.00,,,0.00,Wunderground v.1.15,2013-09-13 21:45:00,
2013-09-13 17:50:00,80.5,59.0,29.73,NNE,24,1.0,1.0,48,0.00,,,0.00,Wunderground v.1.15,2013-09-13 21:50:00,
2013-09-13 17:55:00,80.2,58.7,29.74,NNE,24,1.0,1.0,48,0.00,,,0.00,Wunderground v.1.15,2013-09-13 21:55:00,
2013-09-13 18:05:00,79.7,63.1,29.73,NW,317,1.0,1.0,57,0.00,,,0.00,Wunderground v.1.15,2013-09-13 22:05:00,
2013-09-13 18:10:00,79.1,60.0,29.73,NW,318,0.0,0.0,52,0.00,,,0.00,Wunderground v.1.15,2013-09-13 22:10:00,
2013-09-13 18:15:00,78.6,64.0,29.73,NW,318,0.0,0.0,61,0.00,,,0.00,Wunderground v.1.15,2013-09-13 22:15:00,
2013-09-13 18:25:00,77.8,60.8,29.74,NE,46,1.0,1.0,56,0.00,,,0.00,Wunderground v.1.15,2013-09-13 22:25:00,
2013-09-13 18:30:00,77.8,57.7,29.74,NNE,20,1.0,3.0,50,0.00,,,0.00,Wunderground v.1.15,2013-09-13 22:30:00,
2013-09-13 18:35:00,78.0,57.9,29.74,ENE,60,1.0,3.0,50,0.00,,,0.00,Wunderground v.1.15,2013-09-13 22:35:00,
2013-09-13 18:45:00,77.1,63.5,29.74,ENE,60,0.0,1.0,63,0.00,,,0.00,Wunderground v.1.15,2013-09-13 22:45:00,
2013-09-13 18:50:00,76.1,63.0,29.74,ENE,60,0.0,0.0,64,0.00,,,0.00,Wunderground v.1.15,2013-09-13 22:50:00,
2013-09-13 18:55:00,75.2,63.1,29.74,ENE,60,0.0,0.0,66,0.00,,,0.00,Wunderground v.1.15,2013-09-13 22:55:00,
2013-09-13 19:05:00,74.0,62.8,29.75,ENE,60,0.0,0.0,68,0.00,,,0.00,Wunderground v.1.15,2013-09-13 23:05:00,
2013-09-13 19:10:00,73.4,62.6,29.75,ENE,60,0.0,0.0,69,0.00,,,0.00,Wunderground v.1.15,2013-09-13 23:10:00,
2013-09-13 19:15:00,72.9,62.5,29.75,ENE,60,0.0,0.0,70,0.00,,,0.00,Wunderground v.1.15,2013-09-13 23:15:00,
2013-09-13 19:25:00,72.1,63.0,29.75,ENE,60,0.0,0.0,73,0.00,,,0.00,Wunderground v.1.15,2013-09-13 23:25:00,
2013-09-13 19:30:00,71.8,63.1,29.76,ENE,60,0.0,0.0,74,0.00,,,0.00,Wunderground v.1.15,2013-09-13 23:30:00,
2013-09-13 19:35:00,71.4,63.1,29.76,ENE,60,0.0,0.0,75,0.00,,,0.00,Wunderground v.1.15,2013-09-13 23:35:00,
2013-09-13 19:45:00,70.7,62.4,29.76,ENE,60,0.0,0.0,75,0.00,,,0.00,Wunderground v.1.15,2013-09-13 23:45:00,
2013-09-13 19:50:00,70.3,62.4,29.77,ENE,60,0.0,0.0,76,0.00,,,0.00,Wunderground v.1.15,2013-09-13 23:50:00,
2013-09-13 19:55:00,69.9,62.7,29.77,ENE,60,0.0,0.0,78,0.00,,,0.00,Wunderground v.1.15,2013-09-13 23:55:00,
2013-09-13 20:05:00,69.3,62.5,29.77,ENE,60,0.0,0.0,79,0.00,,,0.00,Wunderground v.1.15,2013-09-14 00:05:00,
2013-09-13 20:10:00,68.9,62.1,29.78,ENE,60,0.0,0.0,79,0.00,,,0.00,Wunderground v.1.15,2013-09-14 00:10:00,
2013-09-13 20:15:00,68.6,62.2,29.78,ENE,60,0.0,0.0,80,0.00,,,0.00,Wunderground v.1.15,2013-09-14 00:15:00,
2013-09-13 20:25:00,68.2,62.8,29.79,ENE,60,0.0,0.0,83,0.00,,,0.00,Wunderground v.1.15,2013-09-14 00:25:00,
2013-09-13 20:30:00,67.9,61.1,29.79,ENE,60,0.0,0.0,79,0.00,,,0.00,Wunderground v.1.15,2013-09-14 00:30:00,
2013-09-13 21:05:00,69.0,59.2,29.81,ENE,58,0.0,0.0,71,0.00,,,0.00,Wunderground v.1.15,2013-09-14 01:05:00,
2013-09-13 21:10:00,68.9,59.1,29.82,ENE,58,0.0,0.0,71,0.00,,,0.00,Wunderground v.1.15,2013-09-14 01:10:00,
2013-09-13 21:15:00,68.8,59.8,29.82,ENE,58,0.0,0.0,73,0.00,,,0.00,Wunderground v.1.15,2013-09-14 01:15:00,
2013-09-13 21:20:00,68.7,59.3,29.82,ENE,58,0.0,0.0,72,0.00,,,0.00,Wunderground v.1.15,2013-09-14 01:20:00,
2013-09-13 21:30:00,68.4,59.8,29.83,ENE,58,0.0,0.0,74,0.00,,,0.00,Wunderground v.1.15,2013-09-14 01:30:00,
2013-09-13 21:35:00,68.2,61.1,29.83,ENE,58,0.0,0.0,78,0.00,,,0.00,Wunderground v.1.15,2013-09-14 01:35:00,
2013-09-13 21:40:00,67.9,61.1,29.83,ENE,58,0.0,0.0,79,0.00,,,0.00,Wunderground v.1.15,2013-09-14 01:40:00,
2013-09-13 21:50:00,67.2,60.1,29.83,ENE,58,0.0,0.0,78,0.00,,,0.00,Wunderground v.1.15,2013-09-14 01:50:00,
2013-09-13 21:55:00,66.8,60.4,29.83,ENE,58,0.0,0.0,80,0.00,,,0.00,Wunderground v.1.15,2013-09-14 01:55:00,
2013-09-13 22:00:00,66.4,60.7,29.83,ENE,58,0.0,0.0,82,0.00,,,0.00,Wunderground v.1.15,2013-09-14 02:00:00,
2013-09-13 22:10:00,65.6,60.6,29.83,ENE,58,0.0,0.0,84,0.00,,,0.00,Wunderground v.1.15,2013-09-14 02:10:00,
2013-09-13 22:15:00,65.3,60.7,29.84,ENE,58,0.0,0.0,85,0.00,,,0.00,Wunderground v.1.15,2013-09-14 02:15:00,
2013-09-13 22:25:00,64.6,60.3,29.84,ENE,58,0.0,0.0,86,0.00,,,0.00,Wunderground v.1.15,2013-09-14 02:25:00,
2013-09-13 22:30:00,64.2,60.2,29.84,ENE,58,0.0,0.0,87,0.00,,,0.00,Wunderground v.1.15,2013-09-14 02:30:00,
2013-09-13 22:35:00,63.9,60.0,29.84,ENE,58,0.0,0.0,87,0.00,,,0.00,Wunderground v.1.15,2013-09-14 02:35:00,
2013-09-13 22:45:00,63.5,60.2,29.84,ENE,58,0.0,0.0,89,0.00,,,0.00,Wunderground v.1.15,2013-09-14 02:45:00,
2013-09-13 22:50:00,63.4,60.4,29.85,ENE,58,0.0,0.0,90,0.00,,,0.00,Wunderground v.1.15,2013-09-14 02:50:00,
2013-09-13 23:00:00,63.0,59.7,29.85,ENE,58,0.0,0.0,89,0.00,,,0.00,Wunderground v.1.15,2013-09-14 03:00:00,
2013-09-13 23:05:00,62.9,59.9,29.85,ENE,58,0.0,0.0,90,0.00,,,0.00,Wunderground v.1.15,2013-09-14 03:05:00,
2013-09-13 23:10:00,62.8,60.1,29.85,ENE,58,0.0,1.0,91,0.00,,,0.00,Wunderground v.1.15,2013-09-14 03:10:00,
2013-09-13 23:15:00,62.9,59.9,29.85,ENE,58,0.0,1.0,90,0.00,,,0.00,Wunderground v.1.15,2013-09-14 03:15:00,
2013-09-13 23:25:00,63.2,59.9,29.85,ENE,58,0.0,0.0,89,0.00,,,0.00,Wunderground v.1.15,2013-09-14 03:25:00,
2013-09-13 23:30:00,63.6,59.3,29.85,ENE,58,0.0,0.0,86,0.00,,,0.00,Wunderground v.1.15,2013-09-14 03:30:00,
2013-09-13 23:40:00,64.3,58.7,29.85,NNE,18,0.0,2.0,82,0.00,,,0.00,Wunderground v.1.15,2013-09-14 03:40:00,
2013-09-13 23:45:00,64.8,58.5,29.85,NNE,12,0.0,2.0,80,0.00,,,0.00,Wunderground v.1.15,2013-09-14 03:45:00,
2013-09-13 23:50:00,65.2,58.2,29.85,NNE,12,1.0,2.0,78,0.00,,,0.00,Wunderground v.1.15,2013-09-14 03:50:00,